This is the latest recevied weather packets stored in our database for station/object SQ5DCP-1. If no packets are shown the sender has not sent any weather packets the latest 10 day(s).
| Time | Temp. | Humidity | Pressure | Rain* | Wind** | Luminosity | Snow |
|---|---|---|---|---|---|---|---|
| 1778005831 | 22.22° C | 35% | 1006.8 hPa | 0 mm | - | - | - |
| 1778005529 | 22.22° C | 35% | 1006.7 hPa | 0 mm | - | - | - |
| 1778004322 | 23.33° C | 33% | 1006.7 hPa | 0 mm | - | - | - |
| 1778004020 | 23.33° C | 33% | 1006.8 hPa | 0 mm | - | - | - |
| 1778003436 | 23.89° C | 32% | 1006.8 hPa | 0 mm | - | - | - |
| 1778002530 | 23.89° C | 32% | 1006.7 hPa | 0 mm | - | - | - |
| 1778002228 | 23.89° C | 32% | 1006.7 hPa | 0 mm | - | - | - |
| 1778001925 | 23.89° C | 32% | 1006.7 hPa | 0 mm | - | - | - |
| 1778001624 | 24.44° C | 31% | 1006.8 hPa | 0 mm | - | - | - |
| 1778001322 | 24.44° C | 31% | 1006.7 hPa | 0 mm | - | - | - |
| 1778001020 | 24.44° C | 31% | 1006.7 hPa | 0 mm | - | - | - |
| 1777999229 | 24.44° C | 28% | 1006.9 hPa | 0 mm | - | - | - |
| 1777998927 | 24.44° C | 28% | 1006.8 hPa | 0 mm | - | - | - |
| 1777998644 | 25° C | 28% | 1007 hPa | 0 mm | - | - | - |
| 1777998625 | 24.44° C | 28% | 1006.9 hPa | 0 mm | - | - | - |
| 1777998325 | 25° C | 28% | 1007 hPa | 0 mm | - | - | - |
| 1777996834 | 25° C | 27% | 1007.2 hPa | 0 mm | - | - | - |
| 1777995929 | 25° C | 26% | 1007.3 hPa | 0 mm | - | - | - |
| 1777995324 | 25.56° C | 25% | 1007.3 hPa | 0 mm | - | - | - |
| 1777995022 | 25.56° C | 26% | 1007.4 hPa | 0 mm | - | - | - |
| 1777994720 | 25.56° C | 26% | 1007.5 hPa | 0 mm | - | - | - |
| 1777994116 | 25.56° C | 24% | 1007.6 hPa | 0 mm | - | - | - |
| 1777993231 | 26.11° C | 26% | 1007.7 hPa | 0 mm | - | - | - |
| 1777991722 | 26.11° C | 24% | 1007.9 hPa | 0 mm | - | - | - |
| 1777991118 | 26.11° C | 24% | 1008.1 hPa | 0 mm | - | - | - |
* Rain latest hour (hover to see other rain measurements)
** Current wind speed in m/s (hover to see current wind gust speed)